Regional Weather Roundup
Issued by NWS

Home | Current Version | Previous Version | Graphics & Text | Print | Product List | Glossary On
Versions: 1 2 3 4 5 6 7 8 9 10 11 12 13 14 15 16 17 18 19 20 21 22 23 24 25 26 27 28 29 30 31 32 33 34 35 36 37 38 39 40 41 42 43 44 45 46 47 48 49 50
000
ASUS43 KTOP 230308
RWRKS

WEATHER ROUNDUP FOR KANSAS
NATIONAL WEATHER SERVICE GOODLAND KS
1000 PM CDT FRI JUL 22 2016

NOTE:  "FAIR" INDICATES FEW OR NO CLOUDS BELOW 12,000 FEET WITH NO
SIGNIFICANT WEATHER AND/OR OBSTRUCTIONS TO VISIBILITY.

KSZ001>006-013>018-027>032-041>047-230400-
NORTHWEST KANSAS

CITY           SKY/WX    TMP DP  RH WIND       PRES   REMARKS
GOODLAND       CLEAR     84  56  38 S13       29.95F
HAYS           MOCLDY    90  61  37 S14       29.89F
HILL CITY      PTCLDY    81  68  64 E5        29.89F
RUSSELL        CLOUDY    89  62  40 SE12      29.88F
$$

KSZ061>065-074>080-084>089-230400-
SOUTHWEST KANSAS

CITY           SKY/WX    TMP DP  RH WIND       PRES   REMARKS
DODGE CITY     CLEAR     82  62  50 SE10      29.97R HAZE
ELKHART          N/A     84  57  39 SE13        N/A
GARDEN CITY    CLEAR     82  63  52 SE10      29.95S
GREAT BEND     PTCLDY    84  63  48 S9        29.91S
LIBERAL        MOCLDY    88  55  33 S12       29.99S
PRATT          CLEAR     86  58  38 S10       29.95R
$$

KSZ066>073-081>083-090>101-230400-
SOUTHEAST KANSAS

CITY           SKY/WX    TMP DP  RH WIND       PRES   REMARKS
CHANUTE        CLEAR     85  73  67 SE7       29.97R
COFFEYVILLE    CLEAR     86  72  62 SE7       29.97R
HUTCHINSON     CLEAR     87  69  54 SE9       29.92R
MEDICINE LODGE   N/A     89  59  36 S7        29.93R
NEWTON         PTCLDY    87  70  56 S13       29.94S
PARSONS        CLEAR     85  72  65 SE5       29.98R
WICHITA INTL   PTCLDY    90  69  50 SE12      29.93R
WICHITA JABRA  CLEAR     88  69  53 S12       29.94R
WICHITA MCCONL CLEAR     89  69  51 S14       29.94R
WINFIELD       CLEAR     87  69  54 S13       29.96R
$$

KSZ007>012-019>026-033>040-048>060-102>105-230400-
NORTHEAST KANSAS

CITY           SKY/WX    TMP DP  RH WIND       PRES   REMARKS
CONCORDIA      PTCLDY    80  69  69 SE9       29.88S
EMPORIA        PTCLDY    85  73  67 SE10      29.94R
LAWRENCE       PTCLDY    83  75  77 SE7       29.93R
MANHATTAN      CLOUDY    89  71  55 S5        29.89R HX  95
MARYSVILLE     CLOUDY    82  72  69 SE6       29.91R
OLATHE IND     CLOUDY    85  73  67 SE10      29.97R
OLATHE EXE     CLEAR     84  74  71 S9        29.97R
SALINA         PTCLDY    91  69  48 S13       29.88R HX  96
TOPEKA BILLARD PTCLDY    88  72  58 SE12      29.92R
TOPEKA FORBES  CLEAR     88  72  58 SE12      29.93R
$$




USA.gov is the U.S. government's official web portal to all federal, state and local government web resources and services.